CZ-6A DEB, 55548

Orbit data source: Space-Track

CZ-6A DEB, 55548 is space debris in SSO originally from a launch on Fri, 11 Nov 2022 UTC launched from the Taiyaun Space Center, China (TSC). Debris objects in space refer to the collection of defunct objects orbiting the Earth. Examples of debris include non-operational satellites, rocket bodies, and fragments generated from explosions, collisions, or faulty payload assembly.

Loading next visibility...
Identifier
55548, 2022-151YW
Orbit
SSO
Country
Flag of CNCN / PRC
Related business
Manufacturer
SAST
Mission
Spacecraft
Bus & Motor
Unknown
Mass
Unknown
Launch date (UTC)
2022-11-11 (4 years ago)
Launch vehicle
Unknown
Launch site
Taiyaun Space Center, China (TSC)
Object type
Payload
Rocket body
Debris
Shape & HBR
Unknown shape, 0.1 m
Radar Cross Section
Small (<0.1 m²)

Expand to show TLE details & history
Last TLE update: 1 day ago

TLE from 1 day ago
0 CZ-6A DEB
1 55548U 22151YW  26235.49774916  .00002753  00000-0  94236-3 0  9997
2 55548  98.6826 254.0337 0065167 276.6966  82.6805 14.35880866196395
Epoch: 2026-08-23T11:56Z
TLE epoch observation values (Epoch: 2026-08-23T11:56:45.527Z)
Latitude
-0.00009°
Longitude
103.05107°
Altitude
769.439 km
Speed
7.472 km/s
True Right ascension
16h 56m 08s
True Declination
0° 00' 00"
Sunlit
Object was in daylight at epoch
Visualization orbit readout
Latitude
Unknown
Longitude
Unknown
Altitude
Unknown
Speed
Unknown
Apparent Right ascension
Unknown
Apparent Declination
Unknown
Sunlit
N/A
Visualization observer readout
Local Sidereal Time
03:49:27
Azimuth
Unknown
Elevation
Unknown
Doppler factor
Unknown
Orbital elements
Apogee altitude
815.854 km
Perigee altitude
722.699 km
Semi-major axis
7,147.414 km
Eccentricity
0.00652
Inclination
98.6826°
RAAN
254.0337°
Arg. of periapsis
276.6966°
True anomaly
83.42192°
Mean anomaly
82.6805°
Eccentric anomaly
83.05114°
Mean motion
3.59186 °/min
Orbital period
100.23 mins
BSTAR
0.00094236
Loading maneuver chart data...
Computing Atmospheric mass density...
Loading historical data...
Loading historical data...
Loading historical data...
Loading historical data...
Loading historical data...
Loading historical data...
Loading historical data...

Documentation

Showing up to 5 results
|